Home   Weather   Bielsko-Biała   Past weeks
Flag for Poland

Past Weather in Bielsko-Biała, Poland — Yesterday and Last 2 Weeks

Now
86 °F

Passing clouds.


Feels Like: 87 °F
Forecast: 89 / 65 °F
Wind: 3 mph from Southeast

Location: Katowice

Current Time: Jun 25, 2019 at 8:06:52 pm

Latest Report: Jun 25, 2019 at 7:00 pm


Visibility: 19 mi

Pressure: 30.19 "Hg

Humidity: 45%

Dew Point: 63 °F

Location of Bielsko-BiałaLocation

Past Weather in Bielsko-Biała — Graph

°F

Bielsko-Biała Temperature Yesterday

Maximum temperature yesterday: 80 °F (at 4:00 pm)
Minimum temperature yesterday: 64 °F (at 3:00 am)
Average temperature yesterday: 71 °F

High & Low Weather Summary for the Past Weeks

 TemperatureHumidityPressure
High90 °F (Jun 15, 3:00 pm)95% (Jun 14, 6:00 am)30.27 "Hg (Jun 14, 6:00 am)
Low56 °F (Jun 18, 5:00 am)31% (Jun 11, 3:00 pm)29.83 "Hg (Jun 12, 6:00 pm)
Average73 °F64%30.02 "Hg
* Reported Jun 10 6:00 pm — Jun 25 6:00 pm, Bielsko-Biała. Weather by CustomWeather, © 2019

Note: Actual official high and low records may vary slightly from our data, if they occured in-between our weather recording intervals... More about our weather records

Advertising

Bielsko-Biała Weather History for the Previous 24 Hours

Scroll right to see more
 ConditionsComfort  
Time TempWeatherWind HumidityBarometerVisibility
6:00 pm
Tue, Jun 25
87 °FPassing clouds.3 mph44%30.19 "Hg19 mi
5:00 pm87 °FPassing clouds.3 mph41%30.20 "Hg19 mi
4:00 pm87 °FPassing clouds.2 mph40%30.21 "Hg19 mi
3:00 pm88 °FPassing clouds.3 mph40%30.22 "Hg19 mi
2:00 pm85 °FPassing clouds.2 mph43%30.23 "Hg19 mi
1:00 pm84 °FPassing clouds.2 mph45%30.24 "Hg19 mi
12:00 pm82 °FPassing clouds.2 mph49%30.25 "Hg19 mi
11:00 am81 °FSunny.3 mph53%30.26 "Hg19 mi
10:00 am78 °FSunny.5 mph60%30.26 "Hg12 mi
9:00 am75 °FPassing clouds.5 mph68%30.26 "Hg12 mi
8:00 am73 °FPassing clouds.6 mph73%30.25 "Hg12 mi
7:00 am68 °FPassing clouds.3 mph81%30.26 "Hg19 mi
6:00 am65 °FPassing clouds.2 mph89%30.27 "Hg19 mi
5:00 am62 °FPassing clouds.2 mph90%30.27 "Hg19 mi
4:00 am60 °FClear.1 mph91%30.27 "Hg19 mi
3:00 am62 °FClear.2 mph92%30.27 "Hg19 mi
2:00 am60 °FClear.1 mph89%30.27 "Hg19 mi
1:00 am62 °FClear.1 mph85%30.27 "Hg19 mi
12:00 am63 °FClear.1 mph83%30.27 "Hg19 mi
11:00 pm
Mon, Jun 24
66 °FClear.1 mph75%30.27 "Hg19 mi
10:00 pm68 °FPassing clouds.2 mph66%30.26 "Hg31 mi
9:00 pm72 °FPassing clouds.3 mph58%30.24 "Hg31 mi
8:00 pm75 °FPartly sunny.5 mph52%30.22 "Hg19 mi
Weather by CustomWeather, © 2019

See weather overview